User: anonymous   Login
Location: Ammerl�gen
(47.2167°N, 9.6000°E)
Time: 22:26:58
(UTC+00:00)
Language:

XW-2B - Orbit

View from above orbital plane
View from above orbital plane
View from above satellite
View from above satellite

Ground track
Ground track

The orbit data is extracted from the following two-line orbital elements,

1 40911U 15049N   21335.55207162  .00002251  00000-0  11536-3 0  9995
2 40911  97.4899 336.4275 0012796 331.5732 143.6875 15.17551379342829
Epoch (UTC): 01 December 2021 13:14:58
Eccentricity: 0.0012796
inclination: 97.4899°
perigee height: 504 km
apogee height: 522 km
right ascension of ascending node: 336.4275°
argument of perigee: 331.5732°
revolutions per day: 15.17551379
mean anomaly at epoch: 143.6875°
orbit number at epoch: 34282

The dashed part of the orbit path shows where the satellite is in the earth's shadow,  

DLR